"Pseudo-MPEC" for ZTF10BB

Created 2026 Feb 16 7:35:23 UT using Find_Orb

Click here for an explanation of pseudo-MPECs

 
 Astrometry: 
     ZTF10BB 0C2026 02 02.24736107 33 57.454-21 43 23.56   ~29Bo 20.16RUNEOCPI41
     ZTF10BB 0C2026 02 02.24771207 33 56.941-21 43 18.57   ~29Bo 20.16RUNEOCPI41
     ZTF10BB 0C2026 02 03.22881706 57 50.666-15 56 25.92   ~29Bo       UNEOCPI41
     ZTF10BB 0C2026 02 03.22916506 57 49.183-15 56 10.92   ~29Bo       UNEOCPI41
     ZTF10BB*0C2026 02 03.25251406 56 10.640-15 39 58.10   ~29Bo 17.98RUNEOCPI41
     ZTF10BB 0C2026 02 03.25286206 56 09.168-15 39 42.83   ~29Bo 17.98RUNEOCPI41
     ZTF10BB 0C2026 02 03.25298406 56 08.648-15 39 37.61   ~29Bo 17.72RUNEOCPI41
     ZTF10BB 0C2026 02 03.25333206 56 07.130-15 39 22.16   ~29Bo 17.72RUNEOCPI41
     ZTF10BB 0C2026 02 03.27315506 54 40.152-15 24 58.06   ~29Bo       UNEOCPI41
     ZTF10BB 0C2026 02 03.27350206 54 38.663-15 24 43.26   ~29Bo       UNEOCPI41

Station data:
(I41) Palomar Mountain--ZTF  (N33.357336 W116.859780)  US/California.
   Observers B. T. Bolin, Z. T. F. Collaboration. Measurers B. T. Bolin,
   Z.-Y. Lin, F. J. Masci. 1.2-m f/2.4 Schmidt.

Orbital elements:  ZTF10BB
   Perihelion 2026 Mar 10.838943 +/- 0.28 TT = 20:08:04.7 (JD 2461110.338943)
Epoch 2026 Feb  3.0 TT = JDT 2461074.5   Earth MOID: 0.0012   Ju: 0.8606
M 358.968984837 +/- 0.35            (J2000 ecliptic)             AutoNEOCP
n   0.028768012 +/- 0.00958         Peri.   60.348810 +/- 0.19
a  10.54863208 +/- 2.34             Node   134.603079 +/- 0.0045
e   0.92917642 +/- 0.0158           Incl.   34.635009 +/- 0.30
P  34.26054                H 25.61  G  0.15   U  9.6
q 0.747091853 +/- 0.000724    Q 20.35017231 +/- 4.68
From 10 observations 2026 Feb. 2-3 (24.6 hr); mean residual 0".68
Residuals in arcseconds: 
260202 I41  .35+  .61-    260203 I41  .62+  .61-    260203 I41  1.4-  .46+    
260202 I41  .35-  .61+    260203 I41  1.0+  .19-    260203 I41  .56-  .17-    
260203 I41  .52-  .26-    260203 I41  1.1+  .18-    
260203 I41  1.1-  .56+    260203 I41  .83+  .40+    

Ephemerides (geocentric):
Date (UTC) HH   RA             Dec           delta  r     elong  mag " sig PA
---- --------  ------------   ------------  ------ ------ -----  --- --------
2026 02 16 08  20 26 15.485   +27 45 29.92  .20156 .85998  45.9 27?? 27.8  57
2026 02 16 09  20 26 14.550   +27 45 02.89  .20226 .85960  45.9 27?? 27.8  57
2026 02 16 10  20 26 13.629   +27 44 35.89  .20296 .85922  45.9 27?? 27.7  56
2026 02 16 11  20 26 12.723   +27 44 08.90  .20365 .85884  45.9 27?? 27.7  56
2026 02 16 12  20 26 11.831   +27 43 41.93  .20435 .85846  45.9 27?? 27.7  56
2026 02 16 13  20 26 10.953   +27 43 14.98  .20505 .85808  45.9 27?? 27.7  56
2026 02 16 14  20 26 10.089   +27 42 48.05  .20574 .85770  45.9 27?? 27.7  56
2026 02 16 15  20 26 09.239   +27 42 21.12  .20644 .85732  45.9 27?? 27.6  56
2026 02 16 16  20 26 08.403   +27 41 54.22  .20714 .85695  45.9 27?? 27.6  56
2026 02 16 17  20 26 07.581   +27 41 27.32  .20784 .85657  45.9 27?? 27.6  56
2026 02 16 18  20 26 06.772   +27 41 00.44  .20853 .85620  45.9 27?? 27.6  56
2026 02 16 19  20 26 05.977   +27 40 33.57  .20923 .85582  45.9 27?? 27.6  56
2026 02 16 20  20 26 05.195   +27 40 06.72  .20993 .85545  45.9 27?? 27.5  56
2026 02 16 21  20 26 04.427   +27 39 39.87  .21062 .85507  45.9 27?? 27.5  56
2026 02 16 22  20 26 03.672   +27 39 13.04  .21132 .85470  45.9 27?? 27.5  56
2026 02 16 23  20 26 02.930   +27 38 46.21  .21202 .85432  45.9 27?? 27.5  56
2026 02 17 00  20 26 02.202   +27 38 19.40  .21272 .85395  45.9 27?? 27.5  55
2026 02 17 01  20 26 01.486   +27 37 52.59  .21341 .85358  45.9 27?? 27.4  55
2026 02 17 02  20 26 00.783   +27 37 25.79  .21411 .85321  45.9 27?? 27.4  55
2026 02 17 03  20 26 00.093   +27 36 59.00  .21481 .85284  45.9 27?? 27.4  55
2026 02 17 04  20 25 59.416   +27 36 32.22  .21551 .85246  45.9 27?? 27.4  55
2026 02 17 05  20 25 58.752   +27 36 05.44  .21620 .85209  45.9 27?? 27.4  55
2026 02 17 06  20 25 58.100   +27 35 38.67  .21690 .85172  45.9 27?? 27.4  55
2026 02 17 07  20 25 57.461   +27 35 11.90  .21760 .85135  46.0 27?? 27.3  55
2026 02 17 08  20 25 56.834   +27 34 45.14  .21830 .85099  46.0 27?? 27.3  55
2026 02 17 09  20 25 56.220   +27 34 18.38  .21899 .85062  46.0 27?? 27.3  55
2026 02 17 10  20 25 55.618   +27 33 51.63  .21969 .85025  46.0 27?? 27.3  55
2026 02 17 11  20 25 55.028   +27 33 24.88  .22039 .84988  46.0 27?? 27.3  55
2026 02 17 12  20 25 54.450   +27 32 58.13  .22109 .84951  46.0 27?? 27.2  54
2026 02 17 13  20 25 53.885   +27 32 31.38  .22179 .84915  46.0 27?? 27.2  54
2026 02 17 14  20 25 53.331   +27 32 04.64  .22248 .84878  46.0 27?? 27.2  54
2026 02 17 15  20 25 52.790   +27 31 37.89  .22318 .84842  46.0 27?? 27.2  54
2026 02 17 16  20 25 52.260   +27 31 11.15  .22388 .84805  46.0 27?? 27.2  54
2026 02 17 17  20 25 51.742   +27 30 44.41  .22458 .84769  46.0 27?? 27.2  54
2026 02 17 18  20 25 51.235   +27 30 17.66  .22527 .84732  46.0 27?? 27.2  54
2026 02 17 19  20 25 50.741   +27 29 50.92  .22597 .84696  46.0 27?? 27.1  54
2026 02 17 20  20 25 50.258   +27 29 24.18  .22667 .84660  46.0 27?? 27.1  54
2026 02 17 21  20 25 49.786   +27 28 57.43  .22737 .84623  46.0 27?? 27.1  54
2026 02 17 22  20 25 49.326   +27 28 30.68  .22807 .84587  46.0 27?? 27.1  54
2026 02 17 23  20 25 48.877   +27 28 03.93  .22876 .84551  46.0 27?? 27.1  54
2026 02 18 00  20 25 48.440   +27 27 37.17  .22946 .84515  46.0 27?? 27.1  53
2026 02 18 01  20 25 48.014   +27 27 10.41  .23016 .84479  46.0 27?? 27.0  53
2026 02 18 02  20 25 47.599   +27 26 43.65  .23086 .84443  46.0 27?? 27.0  53
2026 02 18 03  20 25 47.195   +27 26 16.89  .23156 .84407  46.0 27?? 27.0  53
2026 02 18 04  20 25 46.803   +27 25 50.11  .23225 .84371  46.0 27?? 27.0  53
2026 02 18 05  20 25 46.421   +27 25 23.34  .23295 .84335  46.0 27?? 27.0  53
2026 02 18 06  20 25 46.051   +27 24 56.55  .23365 .84299  46.0 27?? 27.0  53
2026 02 18 07  20 25 45.691   +27 24 29.77  .23435 .84264  46.0 27?? 27.0  53